EW1786 Weather Reports


Display with metric or nautical units.
time (UTC)temp
F
wind
direction
speed
MPH
gust
MPH
rain 1hr
in
rain 24hr
in
rain mn
in
humidity
%
barometer
mb
20260506194517 62 220 4.0 5.0 0.00 0.00 0.00 55 1007.6
20260506193519 62 222 3.0 5.0 0.00 0.00 0.00 55 1007.5
20260506192518 61 219 3.0 6.0 0.00 0.00 0.00 57 1007.4
20260506191517 61 207 2.0 3.0 0.00 0.00 0.00 60 1007.2
20260506190518 61 295 0.0 3.0 0.00 0.00 0.00 60 1007.1
20260506185517 61 215 0.0 2.0 0.00 0.00 0.00 63 1007.0
20260506184537 62 120 0.0 2.0 0.00 0.00 0.00 60
20260506183538 62 210 0.0 1.0 0.00 0.00 0.00 64
20260506182517 62 75 1.0 7.0 0.00 0.00 0.00 60
20260506181517 62 126 0.0 3.0 0.00 0.00 0.00 62
20260506180517 62 127 0.0 2.0 0.00 0.00 0.00 64
20260506175518 63 197 1.0 3.0 0.00 0.00 0.00 61
20260506174517 63 114 0.0 2.0 0.00 0.00 0.00 63
20260506173520 64 101 1.0 3.0 0.00 0.00 0.00 61
20260506172537 64 89 2.0 3.0 0.00 0.00 0.00 62
20260506171517 63 110 1.0 6.0 0.00 0.00 0.00 67
20260506170538 64 137 1.0 2.0 0.00 0.00 0.00 67
20260506165518 65 223 2.0 5.0 0.00 0.00 0.00 61
20260506164538 65 220 3.0 5.0 0.00 0.00 0.00 64 1005.9
20260506163518 65 212 3.0 4.0 0.00 0.00 0.00 65 1005.9
20260506162517 65 214 2.0 4.0 0.00 0.00 0.00 67 1006.0
20260506161518 65 191 2.0 3.0 0.00 0.00 0.00 68 1005.9
20260506160538 65 187 1.0 3.0 0.00 0.00 0.00 71 1005.9
20260506155517 65 134 1.0 4.0 0.00 0.00 0.00 72 1005.8
20260506154517 65 158 1.0 2.0 0.00 0.00 0.00 77 1005.8
20260506153517 66 223 0.0 3.0 0.00 0.00 0.00 75 1005.7
20260506152517 65 214 1.0 3.0 0.00 0.00 0.00 71 1005.8
20260506151517 65 219 1.0 3.0 0.00 0.00 0.00 73 1005.8
20260506150517 65 212 0.0 1.0 0.00 0.00 0.00 74 1005.8
20260506145537 65 223 0.0 3.0 0.00 0.00 0.00 75 1006.0
20260506144517 65 211 1.0 4.0 0.00 0.00 0.00 76 1005.7
20260506143537 64 217 2.0 5.0 0.00 0.00 0.00 77 1005.8
20260506142517 64 221 3.0 6.0 0.00 0.00 0.00 80 1005.9
20260506141517 63 220 3.0 6.0 0.00 0.00 0.00 81 1005.9
20260506140519 63 222 4.0 6.0 0.00 0.00 0.00 83 1006.0
20260506135517 63 221 3.0 5.0 0.00 0.00 0.00 84 1006.2
20260506134517 63 222 1.0 3.0 0.00 0.00 0.00 87 1006.4
20260506133517 62 227 1.0 4.0 0.00 0.00 0.00 88 1006.6
20260506132517 62 207 1.0 6.0 0.00 0.00 0.00 88 1006.8
20260506131517 62 216 3.0 5.0 0.00 0.00 0.00 88 1006.8
20260506130522 62 224 2.0 6.0 0.00 0.00 0.00 88 1007.2
20260506125517 62 231 1.0 3.0 0.00 0.00 0.00 89 1007.0
20260506124517 61 226 2.0 3.0 0.00 0.00 0.00 89 1007.0
20260506123517 62 226 2.0 5.0 0.00 0.00 0.00 87 1007.0
20260506122517 63 221 3.0 5.0 0.00 0.00 0.00 85 1006.9
20260506121517 65 228 1.0 6.0 0.00 0.00 0.00 81 1006.7
20260506120517 67 282 1.0 7.0 0.00 0.00 0.00 76 1006.5
20260506115519 68 237 1.0 5.0 0.00 0.00 0.00 74 1006.4
20260506114517 68 243 1.0 5.0 0.00 0.00 0.00 74 1006.5
20260506113517 67 273 1.0 3.0 0.00 0.00 0.00 76 1006.4
20260506112517 67 210 1.0 3.0 0.00 0.00 0.00 74 1006.5
20260506111517 68 201 2.0 7.0 0.00 0.00 0.00 74 1006.5
20260506110517 68 207 2.0 8.0 0.00 0.00 0.00 76 1006.5
20260506105517 67 181 2.0 8.0 0.00 0.00 0.00 81 1006.7
20260506104516 66 210 2.0 6.0 0.00 0.00 0.00 85 1006.7
20260506103537 64 199 3.0 7.0 0.00 0.00 0.00 89 1006.7
20260506102519 63 212 3.0 7.0 0.00 0.00 0.00 91 1006.8
20260506101517 63 203 3.0 8.0 0.00 0.00 0.00 92 1006.9
20260506100537 63 101 2.0 10.0 0.00 0.00 0.00 92 1006.9
20260506095537 62 84 1.0 11.0 0.00 0.00 0.00 92 1007.1
20260506094516 61 81 5.0 11.0 0.00 0.00 0.00 92 1007.0
20260506093518 60 81 4.0 10.0 0.00 0.00 0.00 92 1007.0
20260506092516 60 72 4.0 9.0 0.00 0.00 0.00 92 1007.0
20260506091516 59 79 4.0 10.0 0.00 0.00 0.00 92 1007.1
20260506090516 59 73 2.0 6.0 0.00 0.00 0.00 92 1007.0
20260506085517 59 73 3.0 7.0 0.00 0.00 0.00 92 1007.2
20260506084517 59 52 1.0 5.0 0.00 0.00 0.00 92 1007.2
20260506083536 59 54 1.0 3.0 0.00 0.00 0.00 92 1007.1
20260506082517 58 41 0.0 2.0 0.00 0.00 0.00 92 1007.1
20260506081519 58 48 0.0 1.0 0.00 0.00 0.00 92 1007.1
20260506080537 58 0.0 1.0 0.00 0.00 0.00 92 1007.1
20260506072518 57 113 0.0 5.0 0.00 0.00 0.00 92 1007.1
20260506071520 57 132 0.0 4.0 0.00 0.00 0.00 92 1007.2
20260506070539 57 254 0.0 2.0 0.00 0.00 0.00 92 1007.3
20260506062116 0 0.0 0.0 0.00 0.00 0.00
20260506061518 0 0.0 0.0 0.00 0.00 0.00
20260506060518 0 0.0 0.0 0.00 0.00 0.00
20260506060116 0 0.0 0.0 0.00 0.00 0.00
20260506051135 0 0.0 0.0 0.00 0.00 0.00
20260506050615 0 0.0 0.0 0.00 0.00 0.00
20260506045045 0 0.0 0.0 0.00 0.00 0.00
20260506044545 0 0.0 0.0 0.00 0.00 0.00 91
20260506043518 56 210 1.0 3.0 0.00 0.00 0.00 91 1007.8
20260506042518 56 138 0.0 2.0 0.00 0.00 0.00 91 1007.8
20260506041518 56 217 1.0 4.0 0.00 0.00 0.00 91 1008.1
20260506040540 56 219 3.0 5.0 0.00 0.00 0.00 91 1008.1
20260506035517 56 220 3.0 6.0 0.00 0.00 0.00 91 1008.0
20260506034518 56 219 2.0 5.0 0.00 0.00 0.00 92 1007.8
20260506033518 56 221 3.0 6.0 0.00 0.00 0.00 92 1007.7
20260506032518 56 209 2.0 6.0 0.00 0.00 0.00 92 1007.7
20260506031519 56 221 3.0 4.0 0.00 0.00 0.00 92 1007.7
20260506030518 57 227 1.0 3.0 0.00 0.00 0.00 92 1007.8
20260506025517 57 230 1.0 3.0 0.00 0.00 0.00 92 1008.1
20260506024518 57 216 0.0 1.0 0.00 0.00 0.00 92 1008.0
20260506023518 57 209 0.0 1.0 0.00 0.00 0.00 92 1008.2
20260506022518 58 138 0.0 2.0 0.00 0.00 0.00 91 1008.3
20260506021517 58 0.0 0.0 0.00 0.00 0.00 91 1008.7
20260506020519 58 132 0.0 3.0 0.00 0.00 0.00 91 1008.6
20260506015518 58 117 0.0 2.0 0.00 0.00 0.00 91 1008.5
20260506014518 58 81 1.0 3.0 0.00 0.00 0.00 91 1008.5
20260506013518 58 0.0 0.0 0.00 0.00 0.00 91 1009.2
20260506012518 58 0.0 0.0 0.00 0.00 0.00 91 1009.0
20260506011518 58 0.0 0.0 0.00 0.00 0.00 91 1009.1
20260506010518 58 0.0 0.0 0.00 0.00 0.00 91 1009.3
20260506005538 58 0.0 0.0 0.00 0.00 0.00 91 1009.1
20260506004518 58 0.0 0.0 0.00 0.00 0.00 91 1008.8
20260506003518 58 0.0 0.0 0.00 0.00 0.00 91 1008.7
20260506002518 58 0.0 0.0 0.00 0.00 0.00 91 1008.8
20260506001519 58 0.0 0.0 0.00 0.00 0.00 91 1008.7
20260506000518 58 0.0 0.0 0.00 0.00 0.00 91 1008.9
20260505235518 58 0.0 0.0 0.00 0.00 0.00 91 1009.1
20260505234537 58 0.0 0.0 0.00 0.00 0.00 91 1009.4
20260505233517 58 0.0 0.0 0.00 0.00 0.00 91 1009.4
20260505232517 58 0.0 0.0 0.00 0.00 0.00 91 1009.3
20260505231537 58 0.0 0.0 0.00 0.00 0.00 91 1009.3
20260505230538 58 0.0 0.0 0.00 0.00 0.00 91 1009.2
20260505225517 58 0.0 0.0 0.00 0.00 0.00 91 1009.3
20260505224517 58 0.0 0.0 0.00 0.00 0.00 91 1009.4
20260505223518 58 0.0 0.0 0.00 0.00 0.00 91 1009.5
20260505222517 58 0.0 0.0 0.00 0.00 0.00 91 1009.5
20260505221517 58 0.0 0.0 0.00 0.00 0.00 91 1009.7
20260505220517 58 0.0 0.0 0.00 0.00 0.00 91 1009.7
20260505215537 58 0.0 0.0 0.00 0.00 0.00 91 1009.8
20260505214537 59 0.0 0.0 0.00 0.00 0.00 91 1009.9
20260505213538 59 0.0 0.0 0.00 0.00 0.00 91 1010.0
20260505212519 59 0.0 0.0 0.00 0.00 0.00 90 1010.1
20260505211517 59 0.0 0.0 0.00 0.00 0.00 90 1010.0
20260505210518 59 0.0 0.0 0.00 0.00 0.00 90 1009.9
20260505205517 59 0.0 0.0 0.00 0.00 0.00 90 1010.0
20260505204519 60 0.0 0.0 0.00 0.00 0.00 89 1010.1
20260505203537 60 0.0 0.0 0.00 0.00 0.00 89 1010.0
20260505202517 61 0.0 0.0 0.00 0.00 0.00 88 1010.0
20260505201517 61 73 0.0 2.0 0.00 0.00 0.00 88 1009.9
20260505200518 62 53 0.0 1.0 0.00 0.00 0.00 88 1009.9
20260505195517 62 53 0.0 1.0 0.00 0.00 0.00 87 1010.0